Time,TemperatureF,DewpointF,PressureIn,WindDirection,WindDirectionDegrees,WindSpeedMPH,WindSpeedGustMPH,Humidity,HourlyPrecipIn,Conditions,Clouds,dailyrainin,SoftwareType,DateUTC
2013-05-10 00:03:00,54.0,53.0,29.96,ESE,118,0.0,0.0,98,0.00,,,0.42,,2013-05-10 04:03:00,
2013-05-10 00:12:00,54.0,53.0,29.96,ESE,118,0.0,0.0,98,0.00,,,0.42,,2013-05-10 04:12:00,
2013-05-10 00:23:00,53.0,52.0,29.96,ESE,118,0.0,0.0,98,0.00,,,0.42,,2013-05-10 04:23:00,
2013-05-10 00:33:00,53.0,52.0,29.96,ESE,118,0.0,0.0,98,0.00,,,0.42,,2013-05-10 04:33:00,
2013-05-10 00:43:00,53.0,53.0,29.96,ESE,118,0.0,0.0,99,0.00,,,0.42,,2013-05-10 04:43:00,
2013-05-10 00:52:00,53.0,53.0,29.96,ESE,118,0.0,0.0,99,0.00,,,0.42,,2013-05-10 04:52:00,
2013-05-10 01:02:00,54.0,54.0,29.96,ESE,119,0.0,0.0,99,0.00,,,0.42,,2013-05-10 05:02:00,
2013-05-10 01:12:00,54.0,54.0,29.96,ESE,118,0.0,0.0,99,0.00,,,0.42,,2013-05-10 05:12:00,
2013-05-10 01:22:00,54.0,54.0,29.96,ESE,118,0.0,0.0,99,0.00,,,0.42,,2013-05-10 05:22:00,
2013-05-10 01:32:00,54.0,54.0,29.96,ESE,118,0.0,0.0,99,0.00,,,0.42,,2013-05-10 05:32:00,
2013-05-10 01:42:00,55.0,55.0,29.96,ESE,118,0.0,0.0,99,0.00,,,0.42,,2013-05-10 05:42:00,
2013-05-10 01:52:00,55.0,55.0,29.96,ESE,118,0.0,0.0,99,0.00,,,0.42,,2013-05-10 05:52:00,
2013-05-10 02:02:00,55.0,55.0,29.96,ESE,118,0.0,0.0,99,0.00,,,0.42,,2013-05-10 06:02:00,
2013-05-10 02:12:00,55.0,55.0,29.96,ESE,118,0.0,0.0,99,0.00,,,0.42,,2013-05-10 06:12:00,
2013-05-10 02:21:00,55.0,55.0,29.96,ESE,118,0.0,0.0,99,0.00,,,0.42,,2013-05-10 06:21:00,
2013-05-10 02:32:00,55.0,55.0,29.96,ESE,119,0.0,0.0,99,0.00,,,0.42,,2013-05-10 06:32:00,
2013-05-10 02:42:00,55.0,55.0,29.96,ESE,119,0.0,0.0,99,0.00,,,0.42,,2013-05-10 06:42:00,
2013-05-10 02:51:00,55.0,55.0,29.96,ESE,118,0.0,0.0,99,0.00,,,0.42,,2013-05-10 06:51:00,
2013-05-10 03:02:00,55.0,55.0,29.96,ESE,119,0.0,0.0,99,0.00,,,0.42,,2013-05-10 07:02:00,
2013-05-10 03:12:00,55.0,55.0,29.96,ESE,119,0.0,0.0,99,0.00,,,0.42,,2013-05-10 07:12:00,
2013-05-10 03:22:00,55.0,55.0,29.96,ESE,118,0.0,0.0,99,0.00,,,0.42,,2013-05-10 07:22:00,
2013-05-10 03:32:00,55.0,55.0,29.96,ESE,119,0.0,0.0,99,0.00,,,0.42,,2013-05-10 07:32:00,
2013-05-10 03:42:00,54.0,54.0,29.96,ESE,118,0.0,0.0,99,0.00,,,0.42,,2013-05-10 07:42:00,
2013-05-10 03:52:00,54.0,54.0,29.96,ESE,118,0.0,0.0,99,0.00,,,0.42,,2013-05-10 07:52:00,
2013-05-10 04:02:00,54.0,54.0,29.96,ESE,118,0.0,0.0,99,0.00,,,0.42,,2013-05-10 08:02:00,
2013-05-10 04:12:00,54.0,54.0,29.96,ESE,118,0.0,0.0,99,0.00,,,0.42,,2013-05-10 08:12:00,
2013-05-10 04:22:00,54.0,54.0,29.97,ESE,118,0.0,0.0,99,0.00,,,0.42,,2013-05-10 08:22:00,
2013-05-10 04:32:00,54.0,54.0,29.97,ESE,118,0.0,1.0,99,0.00,,,0.42,,2013-05-10 08:32:00,
2013-05-10 04:42:00,54.0,54.0,29.97,ESE,118,0.0,1.0,99,0.00,,,0.42,,2013-05-10 08:42:00,
2013-05-10 04:52:00,54.0,54.0,29.97,ESE,119,0.0,0.0,99,0.00,,,0.42,,2013-05-10 08:52:00,
2013-05-10 05:02:00,54.0,54.0,29.97,ESE,118,0.0,0.0,99,0.00,,,0.42,,2013-05-10 09:02:00,
2013-05-10 05:11:00,54.0,54.0,29.97,ESE,118,0.0,0.0,99,0.00,,,0.42,,2013-05-10 09:11:00,
2013-05-10 05:21:00,53.0,53.0,29.97,ESE,119,0.0,0.0,99,0.00,,,0.42,,2013-05-10 09:21:00,
2013-05-10 05:33:00,53.0,53.0,29.97,ESE,118,0.0,0.0,99,0.00,,,0.42,,2013-05-10 09:33:00,
2013-05-10 05:43:00,53.0,53.0,29.97,ESE,118,0.0,0.0,99,0.00,,,0.42,,2013-05-10 09:43:00,
2013-05-10 05:52:00,53.0,53.0,29.98,ESE,118,0.0,0.0,99,0.00,,,0.42,,2013-05-10 09:52:00,
2013-05-10 06:03:00,53.0,53.0,29.98,ESE,118,0.0,0.0,99,0.00,,,0.42,,2013-05-10 10:03:00,
2013-05-10 06:12:00,53.0,53.0,29.98,ESE,118,0.0,0.0,99,0.00,,,0.42,,2013-05-10 10:12:00,
2013-05-10 06:23:00,53.0,53.0,29.98,ESE,118,0.0,0.0,99,0.00,,,0.42,,2013-05-10 10:23:00,
2013-05-10 06:32:00,52.0,52.0,29.98,ESE,118,0.0,0.0,99,0.00,,,0.42,,2013-05-10 10:32:00,
2013-05-10 06:42:00,52.0,52.0,29.98,ESE,118,0.0,0.0,99,0.00,,,0.42,,2013-05-10 10:42:00,
2013-05-10 06:52:00,53.0,53.0,29.99,ESE,119,0.0,0.0,99,0.00,,,0.42,,2013-05-10 10:52:00,
2013-05-10 07:02:00,53.0,53.0,29.99,ESE,118,0.0,0.0,99,0.00,,,0.42,,2013-05-10 11:02:00,
2013-05-10 07:12:00,53.0,53.0,29.99,ESE,118,0.0,0.0,99,0.00,,,0.42,,2013-05-10 11:12:00,
2013-05-10 07:22:00,53.0,53.0,30.00,ESE,119,0.0,0.0,99,0.00,,,0.42,,2013-05-10 11:22:00,
2013-05-10 07:32:00,53.0,53.0,30.00,ESE,118,0.0,0.0,99,0.00,,,0.42,,2013-05-10 11:32:00,
2013-05-10 07:42:00,53.0,53.0,30.00,ESE,118,0.0,0.0,99,0.00,,,0.42,,2013-05-10 11:42:00,
2013-05-10 07:51:00,54.0,54.0,30.00,ESE,119,0.0,0.0,99,0.00,,,0.42,,2013-05-10 11:51:00,
2013-05-10 08:02:00,54.0,54.0,30.01,ESE,119,0.0,0.0,99,0.00,,,0.42,,2013-05-10 12:02:00,
2013-05-10 08:12:00,54.0,54.0,30.01,ESE,119,0.0,0.0,99,0.00,,,0.42,,2013-05-10 12:12:00,
2013-05-10 08:22:00,55.0,55.0,30.01,ESE,119,0.0,0.0,99,0.00,,,0.41,,2013-05-10 12:22:00,
2013-05-10 08:32:00,57.0,57.0,30.01,ESE,119,0.0,0.0,100,0.00,,,0.41,,2013-05-10 12:32:00,
2013-05-10 08:42:00,57.0,57.0,30.01,ESE,119,0.0,0.0,100,0.00,,,0.41,,2013-05-10 12:42:00,
2013-05-10 08:52:00,58.0,58.0,30.01,ESE,119,0.0,0.0,99,0.00,,,0.41,,2013-05-10 12:52:00,
2013-05-10 09:01:00,59.0,59.0,30.01,ESE,119,0.0,0.0,100,0.00,,,0.41,,2013-05-10 13:01:00,
2013-05-10 09:11:00,59.0,59.0,30.01,ESE,119,0.0,0.0,100,0.00,,,0.41,,2013-05-10 13:11:00,
2013-05-10 09:21:00,60.0,60.0,30.01,ESE,119,0.0,0.0,100,0.00,,,0.41,,2013-05-10 13:21:00,
2013-05-10 09:32:00,62.0,60.0,30.00,ESE,119,0.0,0.0,92,0.00,,,0.41,,2013-05-10 13:32:00,
2013-05-10 09:42:00,62.0,60.0,30.00,ESE,119,0.0,0.0,92,0.00,,,0.41,,2013-05-10 13:42:00,
2013-05-10 09:52:00,64.0,60.0,30.01,NNW,347,0.0,2.0,87,0.00,,,0.41,,2013-05-10 13:52:00,
2013-05-10 10:02:00,65.0,59.0,30.01,NNW,346,0.0,2.0,80,0.00,,,0.41,,2013-05-10 14:02:00,
2013-05-10 10:11:00,65.0,59.0,30.01,NNW,346,0.0,2.0,80,0.00,,,0.41,,2013-05-10 14:11:00,
2013-05-10 10:21:00,67.0,58.0,30.00,NNW,327,1.0,3.0,73,0.00,,,0.40,,2013-05-10 14:21:00,
2013-05-10 10:32:00,67.0,57.0,30.01,WNW,295,1.0,4.0,70,0.00,,,0.40,,2013-05-10 14:32:00,
2013-05-10 10:42:00,67.0,57.0,30.01,WNW,295,1.0,4.0,70,0.00,,,0.40,,2013-05-10 14:42:00,
2013-05-10 10:52:00,68.0,57.0,30.01,SW,229,0.0,4.0,68,0.00,,,0.40,,2013-05-10 14:52:00,
2013-05-10 11:02:00,69.0,57.0,30.01,NNE,14,0.0,3.0,65,0.00,,,0.40,,2013-05-10 15:02:00,
2013-05-10 11:20:00,-999.0,-99.9,30.01,NNE,14,0.0,3.0,65,0.00,,,0.40,,2013-05-10 15:20:00,
2013-05-10 11:32:00,71.0,58.0,30.01,SW,228,0.0,2.0,63,0.00,,,0.38,,2013-05-10 15:32:00,
2013-05-10 11:42:00,72.0,57.0,30.01,West,270,1.0,4.0,60,0.00,,,0.38,,2013-05-10 15:42:00,
2013-05-10 11:53:00,72.0,57.0,30.01,West,270,1.0,4.0,60,0.00,,,0.38,,2013-05-10 15:53:00,
2013-05-10 12:02:00,73.0,57.0,30.00,West,273,0.0,3.0,58,0.00,,,0.38,,2013-05-10 16:02:00,
2013-05-10 12:12:00,73.0,57.0,30.00,West,273,0.0,3.0,58,0.00,,,0.38,,2013-05-10 16:12:00,
2013-05-10 12:23:00,72.0,56.0,29.99,East,79,0.0,4.0,58,0.00,,,0.36,,2013-05-10 16:23:00,
2013-05-10 12:33:00,73.0,54.0,29.99,West,267,0.0,3.0,52,0.00,,,0.36,,2013-05-10 16:33:00,
2013-05-10 12:42:00,73.0,55.0,29.99,NE,45,2.0,4.0,54,0.00,,,0.36,,2013-05-10 16:42:00,
2013-05-10 12:53:00,73.0,55.0,29.99,NE,45,2.0,4.0,54,0.00,,,0.36,,2013-05-10 16:53:00,
2013-05-10 13:02:00,74.0,57.0,29.98,WSW,255,0.0,4.0,55,0.00,,,0.36,,2013-05-10 17:02:00,
2013-05-10 13:12:00,74.0,57.0,29.98,WSW,255,0.0,4.0,55,0.00,,,0.36,,2013-05-10 17:12:00,
2013-05-10 13:22:00,73.0,53.0,29.98,NE,44,0.0,3.0,49,0.00,,,0.36,,2013-05-10 17:22:00,
2013-05-10 13:32:00,74.0,54.0,29.98,ESE,102,0.0,2.0,49,0.00,,,0.36,,2013-05-10 17:32:00,
2013-05-10 13:42:00,74.0,52.0,29.98,North,5,1.0,4.0,47,0.00,,,0.36,,2013-05-10 17:42:00,
2013-05-10 13:52:00,74.0,52.0,29.98,North,5,1.0,4.0,47,0.00,,,0.36,,2013-05-10 17:52:00,
2013-05-10 14:10:00,-999.0,-99.9,29.98,WNW,287,2.0,4.0,46,0.00,,,0.36,,2013-05-10 18:10:00,
2013-05-10 14:22:00,75.0,55.0,29.98,NW,313,0.0,2.0,49,0.00,,,0.36,,2013-05-10 18:22:00,
2013-05-10 14:34:00,75.0,55.0,29.98,NW,314,0.0,2.0,49,0.00,,,0.36,,2013-05-10 18:34:00,
2013-05-10 14:43:00,75.0,56.0,29.98,SW,218,0.0,4.0,51,0.00,,,0.36,,2013-05-10 18:43:00,
2013-05-10 14:54:00,75.0,56.0,29.98,SW,218,0.0,4.0,51,0.00,,,0.36,,2013-05-10 18:54:00,
2013-05-10 15:02:00,76.0,52.0,29.98,West,280,0.0,3.0,43,0.00,,,0.36,,2013-05-10 19:02:00,
2013-05-10 15:11:00,76.0,52.0,29.98,West,280,0.0,3.0,43,0.00,,,0.36,,2013-05-10 19:11:00,
2013-05-10 15:21:00,76.0,49.0,29.98,North,360,1.0,4.0,39,0.00,,,0.35,,2013-05-10 19:21:00,
2013-05-10 15:32:00,76.0,50.0,29.98,NNE,17,0.0,3.0,40,0.00,,,0.35,,2013-05-10 19:32:00,
2013-05-10 15:42:00,76.0,50.0,29.98,NNE,17,0.0,3.0,40,0.00,,,0.35,,2013-05-10 19:42:00,
2013-05-10 15:52:00,76.0,51.0,29.97,NE,55,1.0,3.0,41,0.00,,,0.35,,2013-05-10 19:52:00,
2013-05-10 16:02:00,77.0,51.0,29.97,NNW,337,0.0,3.0,40,0.00,,,0.35,,2013-05-10 20:02:00,
2013-05-10 16:12:00,77.0,51.0,29.97,NNW,337,0.0,3.0,40,0.00,,,0.35,,2013-05-10 20:12:00,
2013-05-10 16:22:00,76.0,52.0,29.97,NW,311,0.0,4.0,43,0.00,,,0.30,,2013-05-10 20:22:00,
2013-05-10 16:32:00,75.0,50.0,29.96,NNW,335,0.0,3.0,42,0.00,,,0.30,,2013-05-10 20:32:00,
2013-05-10 16:42:00,75.0,50.0,29.96,NNW,335,0.0,3.0,42,0.00,,,0.30,,2013-05-10 20:42:00,
2013-05-10 16:52:00,76.0,53.0,29.96,NNW,348,0.0,1.0,45,0.00,,,0.30,,2013-05-10 20:52:00,
2013-05-10 17:02:00,76.0,52.0,29.96,NW,306,0.0,3.0,44,0.00,,,0.30,,2013-05-10 21:02:00,
2013-05-10 17:11:00,76.0,52.0,29.96,NW,306,0.0,3.0,44,0.00,,,0.30,,2013-05-10 21:11:00,
2013-05-10 17:25:00,76.0,53.0,29.96,North,11,0.0,4.0,45,0.00,,,0.01,,2013-05-10 21:25:00,
2013-05-10 17:32:00,75.0,55.0,29.95,NW,317,0.0,2.0,49,0.00,,,0.01,,2013-05-10 21:32:00,
2013-05-10 17:43:00,75.0,55.0,29.95,NW,317,0.0,2.0,49,0.00,,,0.01,,2013-05-10 21:43:00,
2013-05-10 17:53:00,75.0,57.0,29.95,WNW,290,0.0,5.0,53,0.00,,,0.01,,2013-05-10 21:53:00,
2013-05-10 18:02:00,75.0,58.0,29.95,WSW,238,0.0,3.0,56,0.00,,,0.01,,2013-05-10 22:02:00,
2013-05-10 18:13:00,75.0,58.0,29.95,WSW,238,0.0,3.0,56,0.00,,,0.01,,2013-05-10 22:13:00,
2013-05-10 18:22:00,74.0,56.0,29.95,NW,317,0.0,1.0,54,0.00,,,0.01,,2013-05-10 22:22:00,
2013-05-10 18:32:00,73.0,58.0,29.95,NE,36,0.0,2.0,59,0.00,,,0.01,,2013-05-10 22:32:00,
2013-05-10 18:42:00,72.0,55.0,29.96,NE,52,0.0,4.0,55,0.00,,,0.01,,2013-05-10 22:42:00,
2013-05-10 18:52:00,72.0,55.0,29.96,NE,52,0.0,4.0,55,0.00,,,0.01,,2013-05-10 22:52:00,
2013-05-10 19:02:00,72.0,55.0,29.96,WNW,292,0.0,3.0,56,0.00,,,0.01,,2013-05-10 23:02:00,
2013-05-10 19:12:00,72.0,55.0,29.96,WNW,292,0.0,3.0,56,0.00,,,0.01,,2013-05-10 23:12:00,
2013-05-10 19:22:00,71.0,56.0,29.97,WNW,288,0.0,3.0,60,0.00,,,0.00,,2013-05-10 23:22:00,
2013-05-10 19:33:00,70.0,55.0,29.96,NNE,24,0.0,0.0,59,0.00,,,0.00,,2013-05-10 23:33:00,
2013-05-10 19:42:00,70.0,55.0,29.96,NNE,24,0.0,0.0,59,0.00,,,0.00,,2013-05-10 23:42:00,
2013-05-10 19:52:00,69.0,55.0,29.97,WNW,289,0.0,1.0,62,0.00,,,0.00,,2013-05-10 23:52:00,
2013-05-10 20:02:00,69.0,55.0,29.97,WNW,289,0.0,1.0,62,0.00,,,0.00,,2013-05-11 00:02:00,
2013-05-10 20:11:00,69.0,55.0,29.97,WNW,289,0.0,1.0,62,0.00,,,0.00,,2013-05-11 00:11:00,
2013-05-10 20:21:00,67.0,55.0,29.97,ENE,74,0.0,0.0,65,0.00,,,0.00,,2013-05-11 00:21:00,
2013-05-10 20:32:00,66.0,55.0,29.97,SE,143,0.0,1.0,68,0.00,,,0.00,,2013-05-11 00:32:00,
2013-05-10 20:42:00,66.0,55.0,29.97,SE,143,0.0,1.0,68,0.00,,,0.00,,2013-05-11 00:42:00,
2013-05-10 20:52:00,65.0,55.0,29.96,SE,143,0.0,1.0,70,0.00,,,0.00,,2013-05-11 00:52:00,
2013-05-10 21:01:00,64.0,55.0,29.97,SE,143,0.0,1.0,72,0.00,,,0.00,,2013-05-11 01:01:00,
2013-05-10 21:11:00,64.0,55.0,29.97,SE,143,0.0,1.0,72,0.00,,,0.00,,2013-05-11 01:11:00,
2013-05-10 21:21:00,64.0,55.0,29.97,SE,143,0.0,0.0,73,0.00,,,0.00,,2013-05-11 01:21:00,
2013-05-10 21:32:00,63.0,55.0,29.97,SE,143,0.0,0.0,76,0.00,,,0.00,,2013-05-11 01:32:00,
2013-05-10 21:42:00,63.0,55.0,29.97,SE,143,0.0,0.0,76,0.00,,,0.00,,2013-05-11 01:42:00,
2013-05-10 21:52:00,63.0,56.0,29.98,SE,143,0.0,0.0,78,0.00,,,0.00,,2013-05-11 01:52:00,
2013-05-10 22:02:00,63.0,56.0,29.97,SE,136,0.0,0.0,78,0.00,,,0.00,,2013-05-11 02:02:00,
2013-05-10 22:11:00,63.0,56.0,29.97,SE,136,0.0,0.0,78,0.00,,,0.00,,2013-05-11 02:11:00,
2013-05-10 22:22:00,63.0,56.0,29.97,South,188,0.0,1.0,78,0.00,,,0.00,,2013-05-11 02:22:00,
2013-05-10 22:32:00,62.0,55.0,29.98,South,188,0.0,0.0,79,0.00,,,0.00,,2013-05-11 02:32:00,
2013-05-10 22:42:00,62.0,55.0,29.98,South,188,0.0,0.0,79,0.00,,,0.00,,2013-05-11 02:42:00,
2013-05-10 22:52:00,62.0,55.0,29.97,SSE,163,0.0,1.0,79,0.00,,,0.00,,2013-05-11 02:52:00,
2013-05-10 23:01:00,61.0,55.0,29.97,SSE,163,0.0,0.0,81,0.00,,,0.00,,2013-05-11 03:01:00,
2013-05-10 23:11:00,61.0,55.0,29.97,SSE,163,0.0,0.0,81,0.00,,,0.00,,2013-05-11 03:11:00,
2013-05-10 23:21:00,61.0,56.0,29.97,SSE,163,0.0,0.0,83,0.00,,,0.00,,2013-05-11 03:21:00,
2013-05-10 23:33:00,60.0,55.0,29.97,SSE,163,0.0,0.0,83,0.00,,,0.00,,2013-05-11 03:33:00,
2013-05-10 23:42:00,60.0,55.0,29.97,SSE,163,0.0,0.0,83,0.00,,,0.00,,2013-05-11 03:42:00,
2013-05-10 23:53:00,59.0,54.0,29.96,SSE,163,0.0,0.0,85,0.00,,,0.00,,2013-05-11 03:53:00,